KK4PWJ-13 Weather Reports


Display with metric or nautical units.
time (UTC)temp
F
wind
direction
speed
MPH
gust
MPH
rain 1hr
in
rain 24hr
in
rain mn
in
humidity
%
barometer
mb
20260502233229 55 158 0.0 0.0 0.00 0.00 0.00 76 1010.1
20260502232725 55 7 0.0 0.0 0.00 0.00 0.00 74 1010.1
20260502232222 55 5 0.0 0.0 0.00 0.00 0.00 74 1010.2
20260502231719 55 192 0.0 0.0 0.00 0.00 0.00 77 1009.9
20260502231217 55 192 0.0 0.0 0.00 0.00 0.00 76 1009.8
20260502230715 56 192 0.0 0.0 0.00 0.00 0.00 74 1010.1
20260502230213 56 192 0.0 0.0 0.00 0.00 0.00 72 1010.2
20260502225708 56 192 0.0 0.0 0.00 0.00 0.00 74 1010.1
20260502225206 56 192 0.0 0.0 0.00 0.00 0.00 73 1009.8
20260502224702 56 192 0.0 0.0 0.00 0.00 0.00 72 1010.0
20260502224159 56 192 0.0 0.0 0.00 0.00 0.00 70 1010.1
20260502223656 57 192 0.0 0.0 0.00 0.00 0.00 67 1010.0
20260502223155 57 192 0.0 0.0 0.00 0.00 0.00 65 1009.8
20260502222652 57 192 0.0 0.0 0.00 0.00 0.00 65 1009.8
20260502222148 57 192 0.0 0.0 0.00 0.00 0.00 65 1010.1
20260502221644 57 192 0.0 1.0 0.00 0.00 0.00 60 1009.9
20260502221141 57 192 0.0 0.0 0.00 0.00 0.00 62 1009.9
20260502220637 56 192 0.0 0.0 0.00 0.00 0.00 65 1009.8
20260502220134 56 192 0.0 0.0 0.00 0.00 0.00 65 1009.7
20260502215631 57 192 0.0 0.0 0.00 0.00 0.00 63 1009.9
20260502215128 57 192 0.0 0.0 0.00 0.00 0.00 62 1009.8
20260502214625 57 192 0.0 1.0 0.00 0.00 0.00 63 1009.7
20260502214122 57 192 0.0 0.0 0.00 0.00 0.00 61 1009.5
20260502213619 57 192 0.0 0.0 0.00 0.00 0.00 61 1009.7
20260502213116 57 192 0.0 0.0 0.00 0.00 0.00 62 1009.5
20260502212615 57 192 0.0 0.0 0.00 0.00 0.00 61 1009.9
20260502212113 57 192 0.0 0.0 0.00 0.00 0.00 60 1009.7
20260502211608 57 192 0.0 0.0 0.00 0.00 0.00 60 1009.9
20260502211106 57 192 0.0 0.0 0.00 0.00 0.00 64 1009.8
20260502210603 57 192 0.0 0.0 0.00 0.00 0.00 60 1009.8
20260502210100 57 192 0.0 0.0 0.00 0.00 0.00 63 1009.8
20260502205556 57 192 0.0 0.0 0.00 0.00 0.00 64 1010.1
20260502205054 57 192 0.0 0.0 0.00 0.00 0.00 62 1009.9
20260502204550 57 192 0.0 0.0 0.00 0.00 0.00 64 1010.0
20260502204048 57 192 0.0 1.0 0.00 0.00 0.00 61 1009.9
20260502203545 57 192 0.0 1.0 0.00 0.00 0.00 60 1009.9
20260502203042 57 192 0.0 1.0 0.00 0.00 0.00 62 1010.0
20260502202538 57 192 0.0 0.0 0.00 0.00 0.00 62 1010.0
20260502202036 58 191 0.0 0.0 0.00 0.00 0.00 61 1010.0
20260502201532 58 191 0.0 0.0 0.00 0.00 0.00 64 1009.9
20260502201029 58 191 0.0 1.0 0.00 0.00 0.00 64 1009.9
20260502200524 58 191 0.0 0.0 0.00 0.00 0.00 65 1010.0
20260502200022 58 242 0.0 0.0 0.00 0.00 0.00 62 1010.0
20260502195520 58 240 0.0 0.0 0.00 0.00 0.00 64 1010.0
20260502195015 58 240 0.0 0.0 0.00 0.00 0.00 65 1010.1
20260502194513 59 240 0.0 1.0 0.00 0.00 0.00 62 1009.9
20260502194008 58 249 0.0 0.0 0.00 0.00 0.00 62 1010.1
20260502193506 58 285 0.0 1.0 0.00 0.00 0.00 62 1010.1
20260502193002 59 328 1.0 2.0 0.00 0.00 0.00 63 1010.2
20260502192458 59 55 0.0 1.0 0.00 0.00 0.00 61 1010.2
20260502191955 60 15 0.0 1.0 0.00 0.00 0.00 61 1010.2
20260502191453 60 307 0.0 0.0 0.00 0.00 0.00 62 1010.2
20260502190951 60 137 0.0 0.0 0.00 0.00 0.00 61 1010.1
20260502190448 60 296 0.0 0.0 0.00 0.00 0.00 57 1010.2
20260502185944 60 293 1.0 2.0 0.00 0.00 0.00 60 1010.2
20260502185440 60 150 1.0 1.0 0.00 0.00 0.00 60 1010.2
20260502184937 59 102 0.0 0.0 0.00 0.00 0.00 59 1010.2
20260502184432 59 32 0.0 1.0 0.00 0.00 0.00 61 1010.1
20260502183928 59 64 1.0 1.0 0.00 0.00 0.00 64 1010.3
20260502183425 59 15 0.0 1.0 0.00 0.00 0.00 66 1010.3
20260502182920 59 80 0.0 1.0 0.00 0.00 0.00 63 1010.5
20260502182416 59 115 0.0 1.0 0.00 0.00 0.00 65 1010.4
20260502181912 59 116 0.0 1.0 0.00 0.00 0.00 65 1010.5
20260502181411 58 116 0.0 1.0 0.00 0.00 0.00 68 1010.5
20260502180909 58 117 0.0 0.0 0.00 0.00 0.00 69 1010.6
20260502180406 58 115 0.0 0.0 0.00 0.00 0.00 70 1010.8
20260502170324 58 259 0.0 1.0 0.00 0.00 0.00 68 1010.7
20260502164312 58 66 0.0 1.0 0.00 0.00 0.00 65 1011.2
20260502163808 58 66 0.0 1.0 0.00 0.00 0.00 68 1011.3
20260502163304 58 71 0.0 2.0 0.00 0.00 0.00 68 1011.3
20260502162802 57 72 0.0 1.0 0.00 0.00 0.00 66 1011.3
20260502162258 57 123 1.0 1.0 0.00 0.00 0.00 71 1011.6
20260502161755 57 156 0.0 0.0 0.00 0.00 0.00 71 1011.9
20260502161251 56 156 0.0 1.0 0.00 0.00 0.00 70 1012.1
20260502160750 56 156 0.0 0.0 0.00 0.00 0.00 73 1012.4
20260502160249 56 156 0.0 1.0 0.00 0.00 0.00 72 1012.3
20260502152218 56 247 0.0 1.0 0.00 0.00 0.00 75 1011.8
20260502151715 56 239 0.0 0.0 0.00 0.00 0.00 75 1011.4
20260502151212 56 239 0.0 0.0 0.00 0.00 0.00 73 1011.6
20260502150709 56 239 0.0 0.0 0.00 0.00 0.00 75 1011.8
20260502150206 55 244 0.0 0.0 0.00 0.00 0.00 71 1011.7
20260502140130 54 86 0.0 0.0 0.00 0.00 0.00 79 1011.8
20260502130554 53 74 0.0 0.0 0.00 0.00 0.00 84 1011.1
20260502123538 52 73 0.0 0.0 0.00 0.00 0.00 89 1011.1
20260502123034 52 73 0.0 0.0 0.00 0.00 0.00 88 1011.5
20260502122531 52 72 0.0 0.0 0.00 0.00 0.00 88 1011.3
20260502122028 52 72 0.0 0.0 0.00 0.00 0.00 89 1011.4
20260502121525 52 132 0.0 0.0 0.00 0.00 0.00 88 1011.2
20260502121023 52 176 0.0 0.0 0.00 0.00 0.00 90 1010.9
20260502120519 52 176 0.0 0.0 0.00 0.00 0.00 90 1010.9
20260502115514 51 176 0.0 0.0 0.00 0.00 0.00 91 1011.0
20260502115009 51 176 0.0 0.0 0.00 0.00 0.00 91 1011.0
20260502114506 51 176 0.0 0.0 0.00 0.00 0.00 92 1011.1
20260502114003 51 176 0.0 0.0 0.00 0.00 0.00 93 1011.1
20260502113501 51 176 0.0 0.0 0.00 0.00 0.00 93 1011.1
20260502112959 51 176 0.0 0.0 0.00 0.00 0.00 94 1010.9
20260502112456 51 176 0.0 0.0 0.00 0.00 0.00 94 1011.0
20260502111954 51 176 0.0 0.0 0.00 0.00 0.00 94 1010.9
20260502111451 51 176 0.0 0.0 0.00 0.00 0.00 93 1011.0
20260502110948 51 176 0.0 0.0 0.00 0.00 0.00 93 1010.9
20260502110446 51 176 0.0 0.0 0.00 0.00 0.00 94 1011.0
20260502105943 51 176 0.0 0.0 0.00 0.00 0.00 94 1011.2
20260502105440 51 176 0.0 0.0 0.00 0.00 0.00 95 1011.0
20260502104938 51 176 0.0 0.0 0.00 0.00 0.00 95 1011.0
20260502104435 51 176 0.0 0.0 0.00 0.00 0.00 96 1010.7
20260502103932 51 176 0.0 0.0 0.00 0.00 0.00 96 1011.2
20260502103430 51 176 0.0 0.0 0.00 0.00 0.00 96 1011.0
20260502102927 51 176 0.0 0.0 0.00 0.00 0.00 96 1011.1
20260502102423 51 176 0.0 0.0 0.00 0.00 0.00 96 1011.0
20260502101921 51 176 0.0 0.0 0.00 0.00 0.00 96 1011.2
20260502101419 51 176 0.0 0.0 0.00 0.00 0.00 96 1011.3
20260502100917 51 176 0.0 0.0 0.00 0.00 0.00 96 1011.3
20260502100416 51 176 0.0 0.0 0.00 0.00 0.00 96 1011.4
20260502091349 50 176 0.0 0.0 0.00 0.00 0.00 96 1011.6
20260502090847 50 176 0.0 0.0 0.00 0.00 0.00 96 1011.5
20260502090344 50 176 0.0 0.0 0.00 0.00 0.00 96 1011.3
20260502071239 50 176 1.0 2.0 0.00 0.00 0.00 96 1010.4
20260502070737 50 176 0.0 0.0 0.00 0.00 0.00 96 1010.4
20260502070234 50 176 0.0 0.0 0.00 0.00 0.00 96 1010.4
20260502065733 50 176 0.0 0.0 0.00 0.00 0.00 96 1010.0
20260502065230 50 176 1.0 1.0 0.00 0.00 0.00 95 1010.2
20260502064729 50 176 0.0 0.0 0.00 0.00 0.00 95 1010.3
20260502064226 50 176 0.0 0.0 0.00 0.00 0.00 96 1010.2
20260502063723 50 176 0.0 0.0 0.00 0.00 0.00 96 1010.2
20260502063221 50 176 0.0 0.0 0.00 0.00 0.00 96 1010.4
20260502062718 50 176 0.0 0.0 0.00 0.00 0.00 96 1010.5
20260502062216 50 176 0.0 0.0 0.00 0.00 0.00 96 1010.5
20260502061714 50 176 0.0 0.0 0.00 0.00 0.00 95 1010.2
20260502061211 50 176 0.0 0.0 0.00 0.00 0.00 95 1010.3
20260502060706 50 176 0.0 0.0 0.00 0.00 0.00 95 1010.5
20260502060203 50 176 0.0 0.0 0.00 0.00 0.00 95 1010.4
20260502055701 50 176 0.0 0.0 0.00 0.00 0.00 95 1010.4
20260502055158 50 176 0.0 0.0 0.00 0.00 0.00 95 1010.4
20260502054658 50 176 0.0 0.0 0.00 0.00 0.00 95 1010.5
20260502054154 50 176 0.0 0.0 0.00 0.00 0.00 95 1010.4
20260502053652 50 176 0.0 0.0 0.00 0.00 0.00 95 1010.7
20260502053148 50 176 0.0 0.0 0.00 0.00 0.00 95 1010.7
20260502052647 50 176 0.0 0.0 0.00 0.00 0.00 95 1010.9
20260502052144 49 176 0.0 0.0 0.00 0.00 0.00 95 1010.8
20260502051643 49 176 0.0 0.0 0.00 0.00 0.00 95 1010.7
20260502051140 49 176 0.0 0.0 0.00 0.00 0.00 95 1010.8
20260502050636 49 176 0.0 0.0 0.00 0.00 0.00 95 1010.8
20260502050133 50 176 0.0 0.0 0.00 0.00 0.00 94 1010.9
20260502045630 50 176 0.0 0.0 0.00 0.00 0.00 94 1010.9
20260502045127 50 176 0.0 0.0 0.00 0.00 0.00 94 1011.0
20260502044623 50 176 0.0 0.0 0.00 0.00 0.00 94 1011.0
20260502044120 50 176 0.0 0.0 0.00 0.00 0.00 94 1011.2
20260502043619 50 176 0.0 0.0 0.00 0.00 0.00 94 1011.2
20260502043115 50 176 0.0 0.0 0.00 0.00 0.00 94 1011.1
20260502042614 50 176 0.0 0.0 0.00 0.00 0.00 94 1011.0
20260502042112 50 176 0.0 0.0 0.00 0.00 0.00 94 1011.0
20260502041610 50 176 0.0 0.0 0.00 0.00 0.00 94 1011.1
20260502041107 50 176 0.0 0.0 0.00 0.00 0.00 94 1011.0
20260502040603 50 176 0.0 0.0 0.00 0.00 0.00 94 1011.1
20260502040101 50 176 0.0 0.0 0.00 0.00 0.00 94 1011.2
20260502035556 50 176 0.0 0.0 0.00 0.00 0.00 93 1011.2
20260502035054 50 176 0.0 0.0 0.00 0.00 0.00 93 1011.2
20260502034552 50 176 0.0 0.0 0.00 0.00 0.00 93 1011.3
20260502034050 50 176 0.0 0.0 0.00 0.00 0.00 93 1011.5
20260502033548 50 176 0.0 0.0 0.00 0.00 0.00 93 1011.4
20260502033045 50 176 0.0 0.0 0.00 0.00 0.00 93 1011.4
20260502032541 50 176 0.0 0.0 0.00 0.00 0.00 93 1011.4
20260502032037 50 176 0.0 0.0 0.00 0.00 0.00 93 1011.4
20260502031536 50 176 0.0 0.0 0.00 0.00 0.00 93 1011.2
20260502031033 50 176 0.0 0.0 0.00 0.00 0.00 93 1011.3
20260502030532 50 176 0.0 0.0 0.00 0.00 0.00 92 1011.5
20260502030029 50 176 0.0 0.0 0.00 0.00 0.00 92 1011.3
20260502025526 50 176 0.0 0.0 0.00 0.00 0.00 92 1011.5
20260502025025 50 176 0.0 0.0 0.00 0.00 0.00 92 1011.6
20260502024521 50 176 0.0 0.0 0.00 0.00 0.00 92 1011.4
20260502024020 51 176 0.0 0.0 0.00 0.00 0.00 91 1011.5
20260502023517 51 176 0.0 0.0 0.00 0.00 0.00 91 1011.5
20260502023014 51 176 0.0 0.0 0.00 0.00 0.00 90 1011.4
20260502022511 51 176 0.0 0.0 0.00 0.00 0.00 90 1011.4
20260502022008 51 176 0.0 0.0 0.00 0.00 0.00 90 1011.5
20260502021505 51 176 0.0 0.0 0.00 0.00 0.00 89 1011.5
20260502021002 52 176 0.0 0.0 0.00 0.00 0.00 88 1011.4
20260502020500 52 176 0.0 0.0 0.00 0.00 0.00 88 1011.7
20260502015956 52 176 0.0 0.0 0.00 0.00 0.00 87 1011.5
20260502015455 52 176 0.0 0.0 0.00 0.00 0.00 87 1011.5
20260502014950 52 176 0.0 0.0 0.00 0.00 0.00 86 1011.6
20260502014448 52 176 0.0 0.0 0.00 0.00 0.00 86 1011.6
20260502013944 53 176 0.0 0.0 0.00 0.00 0.00 85 1011.6
20260502013440 53 176 0.0 0.0 0.00 0.00 0.00 86 1011.4
20260502012936 53 176 0.0 0.0 0.00 0.00 0.00 86 1011.3
20260502012434 53 176 0.0 0.0 0.00 0.00 0.00 86 1011.4
20260502011932 53 176 0.0 0.0 0.00 0.00 0.00 86 1011.3
20260502011427 53 176 0.0 0.0 0.00 0.00 0.00 87 1011.3
20260502010925 53 176 0.0 0.0 0.00 0.00 0.00 86 1011.2
20260502010421 53 176 0.0 0.0 0.00 0.00 0.00 86 1011.3
20260502005917 53 176 0.0 0.0 0.00 0.00 0.00 87 1011.1
20260502005416 53 176 0.0 0.0 0.00 0.00 0.00 85 1010.9
20260502004914 53 176 0.0 1.0 0.00 0.00 0.00 86 1010.9
20260502004409 53 176 0.0 1.0 0.00 0.00 0.00 85 1011.1
20260502003906 54 176 0.0 0.0 0.00 0.00 0.00 83 1010.7
20260502003404 54 176 0.0 0.0 0.00 0.00 0.00 83 1011.0
20260502002900 54 176 0.0 0.0 0.00 0.00 0.00 83 1011.0
20260502002358 54 176 0.0 0.0 0.00 0.00 0.00 82 1010.6
20260502001854 54 176 0.0 0.0 0.00 0.00 0.00 82 1010.7
20260502001352 55 176 0.0 0.0 0.00 0.00 0.00 82 1010.4
20260502000849 55 176 0.0 0.0 0.00 0.00 0.00 81 1010.5
20260502000348 55 176 0.0 0.0 0.00 0.00 0.00 78 1010.7
20260501235843 55 176 0.0 0.0 0.00 0.00 0.00 77 1010.5
20260501235339 56 176 0.0 0.0 0.00 0.00 0.00 77 1010.4
20260501234834 56 164 0.0 1.0 0.00 0.00 0.00 76 1010.6
20260501234332 57 163 1.0 1.0 0.00 0.00 0.00 74 1010.5
20260501233830 57 163 0.0 1.0 0.00 0.00 0.00 74 1010.6